Regional Weather Roundup
Issued by NWS

Home | Current Version | Previous Version | Text Only | Print | Product List | Glossary On
Versions: 1 2 3 4 5 6 7 8 9 10 11 12 13 14 15 16 17 18 19 20 21 22 23 24 25 26 27 28 29 30 31 32 33 34 35 36 37 38 39 40 41 42 43 44 45 46 47 48 49 50
000
ASUS43 KDTX 231810
RWRMI
MICHIGAN HOURLY REGIONAL WEATHER ROUNDUP
NATIONAL WEATHER SERVICE DETROIT/PONTIAC MI
100 PM EST TUE JAN 23 2018

NOTE: "FAIR" INDICATES FEW OR NO CLOUDS BELOW 12,000 FEET WITH NO
SIGNIFICANT WEATHER AND/OR OBSTRUCTION TO VISIBILITY.

MIZ047>049-052>055-059>063-066>070-074>076-081>083-231900-
SOUTHEAST LOWER MICHIGAN

CITY           SKY/WX    TMP DP  RH WIND       PRES   REMARKS
ADRIAN         CLOUDY    35  29  78 W21G35    29.65R WCI  24
6HR MIN TEMP:  34; 6HR MAX TEMP:  37; 6HR PCP:  0.01;

ALMA           LGT SNOW  33  32  99 NW16G23   29.59R WCI  22
6HR MIN TEMP:  33; 6HR MAX TEMP:  36;

ANN ARBOR      CLOUDY    36  31  82 SW18G32   29.59R WCI  26
BAD AXE        LGT SNOW  29  28  96 N13G18    29.53R WCI  18
6HR MIN TEMP:  28; 6HR MAX TEMP:  38;

CARO           LGT RAIN  36  33  88 SW13      29.52R WCI  27
DETROIT CITY   CLOUDY    39  33  79 W14       29.57S WCI  31
6HR MIN TEMP:  37; 6HR MAX TEMP:  39; 6HR PCP:  0.02;

DETROIT        LGT RAIN  38  34  85 W22G32    29.59S WCI  27
6HR MIN TEMP:  37; 6HR MAX TEMP:  41; 6HR PCP:  0.02;

FLINT          LGT SNOW  35  30  82 W17G26    29.56R WCI  25
6HR MIN TEMP:  35; 6HR MAX TEMP:  38; 6HR PCP:  0.01;

GROSSE ILE     CLOUDY    39  33  79 W10G22    29.58S WCI  32
6HR MIN TEMP:  37; 6HR MAX TEMP:  39;

HILLSDALE      CLOUDY    32  28  86 W21G33    29.63R WCI  20
HOWELL         CLOUDY    34  31  86 W20G26    29.57R WCI  23
6HR MIN TEMP:  34; 6HR MAX TEMP:  38;


CITY           SKY/WX    TMP DP  RH WIND       PRES   REMARKS
JACKSON        CLOUDY    33  27  78 W18G31    29.61R WCI  22
6HR MIN TEMP:  33; 6HR MAX TEMP:  36; 6HR PCP:  0.03;

LAMBERTVILLE   LGT RAIN  37  32  82 W17G29    29.64R WCI  27
6HR MIN TEMP:  36; 6HR MAX TEMP:  38;

LANSING        LGT SNOW  32  29  88 W21G26    29.61R FOG     WCI  20
6HR MIN TEMP:  32; 6HR MAX TEMP:  37; 6HR PCP: TRACE;

LAPEER         CLOUDY    38  31  76 W14G20    29.53S WCI  29
6HR MIN TEMP:  36; 6HR MAX TEMP:  39;

MONROE         CLOUDY    38  32  79 W25G32    29.60S WCI  27
6HR MIN TEMP:  36; 6HR MAX TEMP:  39;

MT. CLEMENS    LGT RAIN  42  37  85 SW15G23   29.54R
6HR MIN TEMP:  38; 6HR MAX TEMP:  42; 6HR PCP:  0.03;

PONTIAC        CLOUDY    37  31  78 W16G29    29.53S WCI  28
6HR MIN TEMP:  36; 6HR MAX TEMP:  38; 6HR PCP:  0.04;

PORT HOPE        N/A     29  25  85 NW13G22   29.52R WCI  19
6HR MIN TEMP:  29; 6HR MAX TEMP:  42; 6HR PCP:  0.15;

PORT HURON     LGT RAIN  37  32  81 SW10      29.55S WCI  30
TRI CITIES     LGT SNOW  33  33 100 NW17      29.56R VSB 3/4 WCI  22
6HR MIN TEMP:  33; 6HR MAX TEMP:  38; 6HR PCP:  0.02;

MIDLAND        SNOW      32  31  96 NW10G16   29.57R VSB 1/2 WCI  23
6HR MIN TEMP:  32; 6HR MAX TEMP:  38;

TROY           CLOUDY    39  34  81 SW14G26   29.57S WCI  31
SAGINAW HB     LGT SNOW  34  32  93 W15       29.54R WCI  24
$$
MIZ043>046-050>051-056>058-064>065-071>073-077>080-231900-
SOUTHWEST LOWER MICHIGAN

CITY           SKY/WX    TMP DP  RH WIND       PRES   REMARKS
BATTLE CREEK   CLOUDY    32  27  81 W22G31    29.66R WCI  19
6HR MIN TEMP:  32; 6HR MAX TEMP:  37; 6HR PCP:  0.02;

BENTON HARBOR  CLOUDY    32  26  78 NW13G25   29.77R WCI  22
6HR MIN TEMP:  31; 6HR MAX TEMP:  34; 6HR PCP:  0.07;

BIG RAPIDS     LGT SNOW  26  23  85 NW12G23   29.64R WCI  16
6HR MIN TEMP:  26; 6HR MAX TEMP:  35;

COLDWATER      CLOUDY    33  29  84 W21G28    29.68R WCI  21
6HR MIN TEMP:  33; 6HR MAX TEMP:  36;

FREMONT        CLOUDY    28  23  81 NW16G23   29.69R WCI  17
6HR MIN TEMP:  27; 6HR MAX TEMP:  36;

HOLLAND        FLURRIES  31  26  82 NW17G31   29.72R WCI  19
6HR MIN TEMP:  31; 6HR MAX TEMP:  34; 6HR PCP:  0.01;

GRAND RAPIDS   CLOUDY    30  25  81 NW21G30   29.66R WCI  17
6HR MIN TEMP:  30; 6HR MAX TEMP:  36; 6HR PCP: TRACE;

IONIA          FLURRIES  32  29  90 W20G25    29.62R WCI  20
6HR MIN TEMP:  31; 6HR MAX TEMP:  36;

KALAMAZOO      CLOUDY    33  26  75 W17G29    29.70R WCI  22
6HR MIN TEMP:  33; 6HR MAX TEMP:  37; 6HR PCP:  0.01;

LUDINGTON      CLOUDY    27  24  87 N13G21    29.72R WCI  17
6HR MIN TEMP:  27; 6HR MAX TEMP:  30;

MARSHALL       CLOUDY    32  29  87 W21G28    29.65R WCI  20
6HR MIN TEMP:  32; 6HR MAX TEMP:  35;

MOUNT PLEASANT LGT SNOW  31  28  90 NW8G18    29.59R VSB 1   WCI  23
6HR MIN TEMP:  31; 6HR MAX TEMP:  38; 6HR PCP:  0.01;

MUSKEGON       FLURRIES  30  24  78 NW17G28   29.71R WCI  18
6HR MIN TEMP:  30; 6HR MAX TEMP:  34; 6HR PCP:  0.04;

SOUTH HAVEN    CLOUDY    32  27  80 NW14G25   29.76R WCI  22
$$
MIZ016>042-231900-
NORTHERN LOWER MICHIGAN

CITY           SKY/WX    TMP DP  RH WIND       PRES   REMARKS
ALPENA         LGT SNOW  20  18  92 NW12      29.59R FOG     WCI   8
6HR MIN TEMP:  20; 6HR MAX TEMP:  28; 6HR PCP:  0.26;

BEAVER ISLAND  FAIR      20  16  82 N5        29.71R WCI  14
6HR MIN TEMP:  19; 6HR MAX TEMP:  21;

BELLAIRE       LGT SNOW  22  19  89 N7        29.68R WCI  13
6HR MIN TEMP:  21; 6HR MAX TEMP:  27;

CADILLAC       LGT SNOW  22  19  87 NW21G26   29.62R WCI   7
CHARLEVOIX     LGT SNOW  21  18  87 N6        29.71R WCI  14
6HR MIN TEMP:  20; 6HR MAX TEMP:  24;

FRANKFORT      CLOUDY    27  23  86 N12G17    29.71R FOG     WCI  16
GAYLORD        CLOUDY    18  17  96 VRB6G17   29.58S FOG     WCI  10
6HR MIN TEMP:  18; 6HR MAX TEMP:  25; 6HR PCP:  0.04;

GRAYLING       CLOUDY    22  17  79 NW12      29.60R HAZE    WCI  11
6HR MIN TEMP:  22; 6HR MAX TEMP:  31;

HARBOR SPRINGS LGT SNOW  19  15  83 NW3       29.66R
HOUGHTON LAKE  CLOUDY    24  20  84 NW13G21   29.58R WCI  12
6HR MIN TEMP:  23; 6HR MAX TEMP:  33; 6HR PCP:  0.17;

MANISTEE       FLURRIES  27  24  89 N13G21    29.71R WCI  16
OSCODA         LGT SNOW  23  21  91 N9        29.55R VSB 1   WCI  13
6HR MIN TEMP:  23; 6HR MAX TEMP:  33; 6HR PCP:  0.01;

PELLSTON       CLOUDY    19  13  77 N16G24    29.66R WCI   4
6HR MIN TEMP:  18; 6HR MAX TEMP:  21; 6HR PCP: TRACE;

ROGERS CITY    LGT SNOW  19  17  89 NW7       29.62R WCI  10
TRAVERSE CITY  CLOUDY    24  17  74 N14       29.68R WCI  12
6HR MIN TEMP:  24; 6HR MAX TEMP:  29; 6HR PCP:  0.02;

$$
MIZ007>008-015-231900-
EASTERN UPPER MICHIGAN

CITY           SKY/WX    TMP DP  RH WIND       PRES   REMARKS
KINROSS        FAIR      13   8  81 N21       29.65R WCI  -5
6HR MIN TEMP:  13; 6HR MAX TEMP:  15;

MACKINAC ISLAN PTSUNNY   20  15  80 N13G21    29.65R WCI   7
6HR MIN TEMP:  16; 6HR MAX TEMP:  20;

NEWBERRY       CLOUDY    18  16  92 N17G23    29.70R WCI   2
6HR MIN TEMP:  14; 6HR MAX TEMP:  18;

S. S. MARIE    FAIR      19   7  59 N13       29.65S WCI   6
6HR MIN TEMP:  15; 6HR MAX TEMP:  19; 6HR PCP:  0.03;

MUNISING         N/A     24  21  88 N21       29.81R WCI   9
6HR MIN TEMP:  21; 6HR MAX TEMP:  25; 6HR PCP:  0.01;

$$
MIZ004>006-011>014-085-231900-
CENTRAL UPPER MICHIGAN

CITY           SKY/WX    TMP DP  RH WIND       PRES   REMARKS
MANISTIQUE     CLOUDY    23  19  86 N23G33    29.74R FOG     WCI   7
ESCANABA       CLOUDY    26  21  81 N12G25    29.80R WCI  16
6HR MIN TEMP:  23; 6HR MAX TEMP:  28; 6HR PCP: TRACE;

MENOMINEE      CLOUDY    28  22  78 N17G25    29.83R WCI  16
6HR MIN TEMP:  24; 6HR MAX TEMP:  28; 6HR PCP: TRACE;

SAWYER-GWINN   LGT SNOW  19  18  93 N22G30    29.82R VSB 1   WCI   3
$$
MIZ001>003-009>011-084-231900-
WESTERN UPPER MICHIGAN

CITY           SKY/WX    TMP DP  RH WIND       PRES   REMARKS
IRON MOUNTAIN  CLOUDY    23  17  78 NW14G22   29.82R WCI  11
6HR MIN TEMP:  22; 6HR MAX TEMP:  23; 6HR PCP: TRACE;

HOUGHTON       CLOUDY    18  11  74 N16G24    29.91R WCI   3
6HR MIN TEMP:  18; 6HR MAX TEMP:  20; 6HR PCP: TRACE;

COPPER HARBOR    N/A     19  13  77 NE20G25   29.95R WCI   3
6HR MIN TEMP:  19; 6HR MAX TEMP:  21;

IRONWOOD       FLURRIES  20  17  88 N8        29.96R WCI  10
6HR MIN TEMP:  17; 6HR MAX TEMP:  20; 6HR PCP: TRACE;

$$

ABBREVIATIONS USED IN REMARKS
   TC - TEMPERATURE IN CELSIUS
  WCI - WIND CHILL INDEX
   HX - HEAT INDEX
  VSB - VISIBILITY





USA.gov is the U.S. government's official web portal to all federal, state and local government web resources and services.